EW9824 Weather Reports


Display with metric or nautical units.
time (UTC)temp
F
wind
direction
speed
MPH
gust
MPH
rain 1hr
in
rain 24hr
in
rain mn
in
humidity
%
barometer
mb
20260509053046 50 106 1.0 7.0 0.00 0.00 0.00 74 1025.3
20260509051536 50 130 1.0 4.0 0.00 0.00 0.00 73 1025.2
20260509050030 51 125 1.0 5.0 0.00 0.00 0.00 70 1025.1
20260509044529 52 95 2.0 6.0 0.00 0.00 0.00 70 1025.0
20260509043106 52 288 1.0 8.0 0.00 0.00 0.00 69 1025.0
20260509041531 52 169 0.0 5.0 0.00 0.00 0.00 66 1024.8
20260509040029 54 336 0.0 2.0 0.00 0.00 0.00 63 1024.6
20260509034530 55 262 1.0 6.0 0.00 0.00 0.00 61 1024.4
20260509033032 56 235 2.0 9.0 0.00 0.00 0.00 60 1024.3
20260509031531 57 244 4.0 11.0 0.00 0.00 0.00 58 1024.1
20260509030032 58 248 3.0 9.0 0.00 0.00 0.00 55 1023.9
20260509024529 59 256 5.0 16.0 0.00 0.00 0.00 53 1023.9
20260509023032 60 257 6.0 14.0 0.00 0.00 0.00 50 1023.8
20260509021639 61 261 6.0 13.0 0.00 0.00 0.00 48 1023.7
20260509021626 62 264 7.0 17.0 0.00 0.00 0.00 46 1023.6
20260509013039 63 263 7.0 18.0 0.00 0.00 0.00 43 1023.5
20260509011540 63 253 9.0 18.0 0.00 0.00 0.00 41 1023.4
20260509004541 65 261 9.0 19.0 0.00 0.00 0.00 37 1023.3
20260509003038 66 265 10.0 19.0 0.00 0.00 0.00 35 1023.2
20260509001537 67 263 8.0 20.0 0.00 0.00 0.00 34 1023.0
20260509000041 68 260 8.0 23.0 0.00 0.00 0.00 33 1022.8
20260508234540 68 264 8.0 20.0 0.00 0.00 0.00 32 1022.8
20260508233030 68 266 8.0 24.0 0.00 0.00 0.00 31 1022.7
20260508231536 68 267 9.0 20.0 0.00 0.00 0.00 30 1022.7
20260508230029 69 264 8.0 19.0 0.00 0.00 0.00 29 1022.6
20260508224533 69 261 8.0 18.0 0.00 0.00 0.00 28 1022.5
20260508223029 70 271 8.0 19.0 0.00 0.00 0.00 27 1022.4
20260508221602 71 265 6.0 18.0 0.00 0.00 0.00 27 1022.4
20260508220028 70 267 4.0 10.0 0.00 0.00 0.00 27 1022.4
20260508214531 68 265 6.0 14.0 0.00 0.00 0.00 26 1022.5
20260508213145 68 261 10.0 23.0 0.00 0.00 0.00 26 1022.5
20260508211530 68 252 8.0 19.0 0.00 0.00 0.00 25 1022.5
20260508210145 68 243 8.0 19.0 0.00 0.00 0.00 24 1022.5
20260508204533 66 240 7.0 15.0 0.00 0.00 0.00 28 1022.4
20260508203116 63 256 9.0 25.0 0.00 0.00 0.00 28 1022.4
20260508201605 65 261 9.0 19.0 0.00 0.00 0.00 28 1022.3
20260508200106 66 250 9.0 21.0 0.00 0.00 0.00 28 1022.3
20260508193145 67 251 9.0 18.0 0.00 0.00 0.00 33 1022.1
20260508191608 66 268 7.0 17.0 0.00 0.00 0.00 36 1022.0
20260508190029 64 286 7.0 21.0 0.00 0.00 0.00 36 1021.9
20260508184531 62 290 7.0 18.0 0.00 0.00 0.00 43 1021.9
20260508183030 60 348 4.0 8.0 0.00 0.00 0.00 49 1021.9
20260508181531 57 357 4.0 8.0 0.00 0.00 0.00 54 1021.7
20260508180032 55 330 2.0 7.0 0.00 0.00 0.00 56 1021.7
20260508174541 54 3 3.0 7.0 0.00 0.00 0.00 57 1021.8
20260508173107 54 4 5.0 10.0 0.00 0.00 0.00 58 1021.4
20260508171532 54 25 5.0 12.0 0.00 0.00 0.00 61 1021.3
20260508170030 53 25 5.0 11.0 0.00 0.00 0.00 62 1021.3
20260508164607 53 29 8.0 16.0 0.00 0.00 0.00 62 1021.2
20260508163030 54 30 7.0 14.0 0.00 0.00 0.00 63 1021.4
20260508161529 54 1 8.0 16.0 0.00 0.00 0.00 63 1021.4
20260508160031 55 357 8.0 15.0 0.00 0.00 0.00 63 1021.5
20260508154533 55 355 9.0 16.0 0.00 0.00 0.00 63 1021.5
20260508153031 56 354 9.0 17.0 0.00 0.00 0.00 64 1021.3
20260508151602 56 340 8.0 17.0 0.00 0.00 0.00 63 1021.2
20260508144531 55 325 8.0 17.0 0.00 0.00 0.00 60 1020.8
20260508143032 55 325 6.0 14.0 0.00 0.00 0.00 59 1020.5
20260508141530 54 323 7.0 15.0 0.00 0.00 0.00 59 1020.3
20260508140031 54 310 5.0 13.0 0.00 0.00 0.00 60 1020.2
20260508134532 54 316 5.0 13.0 0.00 0.00 0.00 61 1020.1
20260508133032 54 316 6.0 13.0 0.00 0.00 0.00 63 1020.0
20260508131607 53 315 6.0 12.0 0.00 0.00 0.00 66 1019.9
20260508124533 44 337 2.0 7.0 0.00 0.00 0.00 79 1019.5
20260508123034 43 131 1.0 4.0 0.00 0.00 0.00 78 1019.4
20260508121530 43 160 2.0 4.0 0.00 0.00 0.00 77 1019.3
20260508120031 43 156 1.0 4.0 0.00 0.00 0.00 76 1019.2
20260508114606 43 173 2.0 5.0 0.00 0.00 0.00 74 1019.2
20260508113032 43 165 1.0 5.0 0.00 0.00 0.00 72 1019.1
20260508111526 43 159 2.0 7.0 0.00 0.00 0.00 70 1019.1
20260508110031 44 174 2.0 4.0 0.00 0.00 0.00 69 1018.9
20260508104529 44 170 2.0 4.0 0.00 0.00 0.00 69 1019.0
20260508103107 44 169 2.0 5.0 0.00 0.00 0.00 70 1019.0
20260508101542 43 151 4.0 7.0 0.00 0.00 0.00 71 1019.0
20260508094532 43 162 2.0 5.0 0.00 0.00 0.00 71 1019.0
20260508093108 43 151 3.0 6.0 0.00 0.00 0.00 71 1018.9
20260508091530 43 151 2.0 6.0 0.00 0.00 0.00 71 1018.9
20260508090105 43 165 3.0 7.0 0.00 0.00 0.00 71 1019.0
20260508084532 42 173 2.0 7.0 0.00 0.00 0.00 72 1018.9
20260508083031 43 171 2.0 5.0 0.00 0.00 0.00 70 1018.9
20260508081534 43 177 2.0 6.0 0.00 0.00 0.00 70 1019.0
20260508080032 44 178 2.0 4.0 0.00 0.00 0.00 67 1019.0
20260508074606 44 166 2.0 4.0 0.00 0.00 0.00 65 1019.0
20260508073029 45 173 3.0 5.0 0.00 0.00 0.00 64 1019.1
20260508071532 44 151 2.0 7.0 0.00 0.00 0.00 66 1019.1
20260508070029 44 189 1.0 4.0 0.00 0.00 0.00 65 1019.2
20260508064530 45 146 1.0 4.0 0.00 0.00 0.00 62 1019.3
20260508063032 47 194 2.0 6.0 0.00 0.00 0.00 59 1019.3
20260508061530 49 179 2.0 5.0 0.00 0.00 0.00 53 1019.5
20260508060105 51 178 2.0 4.0 0.00 0.00 0.00 49 1019.6